Starlink 31863

operational
NORAD ID: 59789 Int'l Des: 2024-093 Owner: SPXS Country: US Constellation: starlink
LEOCIRCULAR

About Starlink 31863

Description loading...

Live Position

Loading 3D Globe...

Upcoming Passes

Altitude History

Altitude vs Time

uPlot chart will show altitude changes over time

Two-Line Element Set

1 59789U 24093H 25352.57739697 -.00000423 00000-0 -58673-5 0 9991
2 59789 43.0014 306.6937 0000985 278.4187 81.6553 15.27578100 90299
Epoch: Dec 18, 2025 • Age: 9 hours

Current Status

Altitude 483.2 km
Velocity 7.63 km/s
Sub-Earth Point -2.26°S, 61.75°E
Launch Date May 18, 2024
Age 1.5 years
Type internet

Technical Details

Classification Payload
Mass 730.00 kg
Dry Mass 700.00 kg
Total Mass 730.00 kg
Length 0.30 m
Diameter 4.10 m
Span 29.00 m
Shape Box + pan
Manufacturer SPXS
Bus Type Starlink V2M
Phase Status In Orbit
Owner/State SPXS/US

Large Constellations

Loading constellations...